Location: Newark
(50.9167°N, 3.9500°E)
Time: 14:47:45
(UTC+00:00)

OTV 5 (USA 277) - Visible Passes

Search period start: 25 August 2019 00:00
Search period end: 04 September 2019 00:00
Orbit: 305 x 329 km, 54.5° (Epoch: 20 August)

Date Brightness Start Highest point End Pass type
(mag) Time Alt. Az. Time Alt. Az. Time Alt. Az.
25 Aug ? 19:44:23 10° SSW 19:46:39 24° SE 19:48:20 14° E visible
25 Aug ? 21:18:08 10° WSW 21:19:16 22° W 21:19:16 22° W visible
26 Aug ? 19:58:27 10° SW 20:01:05 50° SSE 20:02:59 16° ENE visible
26 Aug ? 21:32:52 10° W 21:33:54 19° WNW 21:33:54 19° WNW visible
27 Aug ? 20:12:54 10° WSW 20:15:37 82° NNW 20:17:20 20° ENE visible
27 Aug ? 21:47:38 10° WNW 21:48:13 15° WNW 21:48:13 15° WNW visible
28 Aug ? 20:27:35 10° W 20:30:13 49° NNW 20:31:29 25° NE visible
28 Aug ? 22:02:20 10° WNW 22:02:22 10° WNW 22:02:22 10° WNW visible
29 Aug ? 19:07:44 10° WSW 19:10:27 73° SSE 19:13:08 10° ENE visible
29 Aug ? 20:42:21 10° WNW 20:44:54 37° N 20:45:30 32° NNE visible
30 Aug ? 19:22:20 10° WSW 19:25:01 62° NNW 19:27:42 10° ENE visible
30 Aug ? 20:57:05 10° WNW 20:59:26 34° N 20:59:26 34° N visible
31 Aug ? 19:37:04 10° W 19:39:40 42° NNW 19:42:16 10° ENE visible
31 Aug ? 21:11:45 10° WNW 21:13:20 27° NW 21:13:20 27° NW visible
01 Sep ? 19:51:49 10° WNW 19:54:22 35° N 19:56:19 14° ENE visible
01 Sep ? 21:26:20 10° WNW 21:27:11 18° WNW 21:27:11 18° WNW visible
02 Sep ? 20:06:32 10° WNW 20:09:05 36° N 20:10:09 24° NE visible
02 Sep ? 21:40:54 10° WNW 21:41:01 11° WNW 21:41:01 11° WNW visible
03 Sep ? 20:21:08 10° WNW 20:23:46 45° NNE 20:23:59 44° NNE visible
